Skip Page Navigation
NASA JPL Caltech
NASA Logo - Jet Propulsion Laboratory + View the NASA Portal
+ Center for Near-Earth Object Studies
JPL Home Earth Solar System Stars & Galaxies Technology
JPL Solar System Dynamics
BODIES ORBITS EPHEMERIDES TOOLS PHYSICAL DATA DISCOVERY FAQ SITE MAP
IMPORTANT: The SSD Announcement email list is now available. Major changes are coming in the near future, including possible hostname and/or URL changes. To be notified of such changes, subscribe to this email list.

Please visit this page for more details.


JPL Small-Body Database Browser
Search: [ help ]  
324387 (2006 RR96)
Classification: Mars-crossing Asteroid          SPK-ID: 2324387
Ephemeris | Orbit Diagram | Orbital Elements | Mission Design | Physical Parameters | Discovery Circumstances | Close-Approach Data ]

[ show orbit diagram ]
Orbital Elements at Epoch 2458600.5 (2019-Apr-27.0) TDB
Reference: JPL 14 (heliocentric ecliptic J2000)
 Element Value Uncertainty (1-sigma)   Units 
e .4086994918422192 5.0153e-08  
a 2.643418835751072 1.482e-08 au
q 1.563054900853458 1.331e-07 au
i 6.469161477870103 5.7661e-06 deg
node 9.089241985738877 4.0625e-05 deg
peri 112.4907561532717 4.3066e-05 deg
M 278.0052100590168 7.3297e-06 deg
tp 2458958.045366316786
(2020-Apr-18.54536632)
3.2941e-05 TDB
period 1569.811105884756
4.30
1.3202e-05
3.615e-08
d
yr
n .2293269544663475 1.9286e-09 deg/d
Q 3.723782770648686 2.0878e-08 au
  Orbit Determination Parameters
   # obs. used (total)      331  
   data-arc span      6203 days (16.98 yr)  
   first obs. used      2002-11-06  
   last obs. used      2019-10-31  
   planetary ephem.      DE431  
   SB-pert. ephem.      SB431-N16  
   condition code      0  
   norm. resid. RMS      .47432  
   source      ORB  
   producer      Otto Matic  
   solution date      2019-Nov-08 09:10:40  

Additional Information
 Earth MOID = .593189 au 
 Jupiter MOID = 1.43342 au 
 T_jup = 3.261 
[ show covariance matrix ]

Ephemeris | Orbit Diagram | Orbital Elements | Mission Design | Physical Parameters | Discovery Circumstances | Close-Approach Data ]

Physical Parameter Table
Parameter Symbol Value Units Sigma Reference Notes
absolute magnitude H 16.5   n/a MPO455391  

324387 (2006 RR96)          Discovered 2006-Sep-15 by Spacewatch at Kitt Peak
Reference: 20120406/Numbers.arcLast Updated: 2012-04-09

[ show close-approach data ]
Alternate Designations
 2006 RR96 = 2003 AE64 
Ephemeris | Orbit Diagram | Orbital Elements | Mission Design | Physical Parameters | Discovery Circumstances | Close-Approach Data ]
ABOUT SSD CREDITS/AWARDS PRIVACY/COPYRIGHT GLOSSARY LINKS
FirstGov
(server date/time)  
NASA Home Page
Site Manager:   Ryan S. Park
Webmaster  Alan B. Chamberlin